Regional Weather Roundup
Issued by NWS Little Rock, AR

Home | Current Version | Previous Version | Text Only | Print | Product List | Glossary Off
Versions: 1 2 3 4 5 6 7 8 9 10 11 12 13 14 15 16 17 18 19 20 21 22 23 24 25 26 27 28 29 30 31 32 33 34 35 36 37 38 39 40 41 42 43 44 45 46 47 48 49 50

000
ASUS44 KLZK 022205
RWRLZK

WEATHER ROUNDUP FOR ARKANSAS
NATIONAL WEATHER SERVICE LITTLE ROCK AR
400 PM CST MON MAR 02 2015

NOTE: "FAIR" INDICATES FEW OR NO CLOUDS BELOW 12,000 FEET WITH NO
SIGNIFICANT WEATHER AND/OR OBSTRUCTIONS TO VISIBILITY.

ARZ001-003-010-029-022300-
NORTHWEST ARKANSAS

CITY           SKY/WX    TMP DP  RH WIND       PRES   REMARKS
FAYETTEVILLE   CLOUDY    38  31  76 SE6       30.24F
FORT SMITH     CLOUDY    39  31  72 SE9       30.28F
HARRISON       CLOUDY    34  25  69 SE9       30.28F WCI  27
BENTONVILLE    CLOUDY    37  27  65 SE9       30.25F
ROGERS         CLOUDY    36  27  69 SE10      30.25F
SILOAM SPGS    CLOUDY    37  27  65 SE3       30.26F
HIGHFILL       CLOUDY    37  28  70 E8        30.23F
SPRINGDALE     CLOUDY    37  28  70 E7G13     30.26F
$$

ARZ004-005-016-022300-
NORTH CENTRAL ARKANSAS

CITY           SKY/WX    TMP DP  RH WIND       PRES   REMARKS
BATESVILLE     CLOUDY    37  21  52 E10       30.36F
FLIPPIN        CLOUDY    37  19  48 SE6       30.32F
MTN HOME       CLOUDY    36  21  54 E7        30.32F
$$

ARZ040-041-022300-
WEST CENTRAL ARKANSAS

CITY           SKY/WX    TMP DP  RH WIND       PRES   REMARKS
MENA           CLOUDY    37  36  93 E8        30.24F
MOUNT IDA      CLOUDY    36  33  89 VRB3      30.25F
$$

ARZ009-017-025-026-028-022300-
NORTHEAST ARKANSAS

CITY           SKY/WX    TMP DP  RH WIND       PRES   REMARKS
CORNING        MOCLDY    36  21  55 NE8       30.40F
JONESBORO      CLOUDY    34  25  69 N10       30.38F WCI  26
NEWPORT        CLOUDY    35  27  73 N12       30.39F WCI  27
WALNUT RIDGE   CLOUDY    36  21  55 NE9       30.39S
BLYTHEVILLE    CLOUDY    38  30  73 N10       30.36F
$$

ARZ022-023-033-042-044-022300-
CENTRAL ARKANSAS

CITY           SKY/WX    TMP DP  RH WIND       PRES   REMARKS
LITTLE ROCK    CLOUDY    38  29  70 NE12      30.33F
N LITTLE ROCK  CLOUDY    38  33  81 E10       30.33F
JACKSONVILLE   CLOUDY    38  30  71 E12       30.32F
SEARCY         CLOUDY    38  28  67 NE10      30.37F
HOT SPRINGS    CLOUDY    38  32  79 E10       30.29F
RUSSELLVILLE   CLOUDY    40  27  59 SE6       30.31F
CLINTON        CLOUDY    41  23  48 E6        30.33F
$$

ARZ036-022300-
EAST ARKANSAS

CITY           SKY/WX    TMP DP  RH WIND       PRES   REMARKS
WEST MEMPHIS   CLOUDY    40  34  79 NE9       30.34F
$$

ARZ050-053-066-070-073-022300-
SOUTHWEST ARKANSAS

CITY           SKY/WX    TMP DP  RH WIND       PRES   REMARKS
ARKADELPHIA    CLOUDY    38  36  92 NE8       30.31F
CAMDEN         CLOUDY    37  32  81 MISG      30.32F FOG
TEXARKANA      CLOUDY    37  36  96 VRB6      30.26F FOG
EL DORADO      CLOUDY    37  36  96 NE12      30.29F FOG
DE QUEEN       CLOUDY    39  35  86 E10       30.26F
$$

ARZ056-057-069-022300-
SOUTHEAST ARKANSAS

CITY           SKY/WX    TMP DP  RH WIND       PRES   REMARKS
PINE BLUFF     CLOUDY    36  34  92 NE12      30.32F
STUTTGART      CLOUDY    37  30  75 N13       30.34F
MONTICELLO     CLOUDY    37  34  89 NE8       30.30F FOG

$$





USA.gov is the U.S. government's official web portal to all federal, state and local government web resources and services.